Погода в Тыве

Россия / Архангельская область     61°48′28″N   48°41′40″E
темп.,
°C
ветер,
м/с
пор.,
м/с
влажн.,
%
обл.,
%
осадки,
мм/ч
давл.,
гПа
погр.,
м
15 мая, сб
сб1500:00+14з11703 0.0 101511
03:00+13юз2271100 0.0 101531
06:00+15зюз2561100 0.0 1015193
09:00+19зюз474599 0.0 10151153
12:00+14вюв118389 0.4 101684
15:00+21з2347100 0.4 10141499
18:00+21ю015387 0.0 1013539
21:00+15в2282100 0.0 101341
16 мая, вс
вс1600:00+14ю2390100 0.0 101268
03:00+13ююв2798100 0.3 1011224
06:00+16ю38805 0.0 1010415
09:00+22юз48535 0.0 10101378
12:00+24юз594055 0.0 10092752
15:00+24юз4103990 0.0 10082845
18:00+22юз4104974 0.0 10071789
21:00+17юз4127790 1.5 1008476
17 мая, пн
пн1700:00+14ююз3129031 0.0 1008362
03:00+13юз4119244 0.0 1009470
06:00+14зюз5984100 0.1 1010879
09:00+17зюз5970100 0.3 10111237
12:00+19зюз5949100 0.1 10122091
15:00+19зюз41052100 0.1 10132142
18:00+16зсз4968100 0.1 1014973
21:00+12сз398025 0.1 1016682
18 мая, вт
вт1800:00+9сз23965 0.0 101876
03:00+8зсз11970 0.0 101919
06:00+13сз137943 0.0 1020353
09:00+16с226462 0.0 1020885
12:00+20ссв224913 0.0 10201321
15:00+21св22435 0.0 10191592
18:00+20всв345299 0.0 1019396
21:00+14в31077100 0.0 1019200
19 мая, ср
ср1900:00+14юв31179100 0.0 1018238
03:00+13юв3117718 0.0 1018262
06:00+17юв3116239 0.0 1017366
09:00+24ююв464549 0.0 1016741
12:00+28ююв58325 0.0 10152405
15:00+29ю56285 0.0 10132810
18:00+27ю37355 0.0 1012428
21:00+19юв312580 0.0 1012216